sat.trackr.live / text

‹ back to catalog

STARLINK-3963

NORAD 52643 · 2022-052AX

PAYLOAD ACTIVE UNKNOWN

§ Identity

Operator
Country
US
Launch date
2022-05-14
Launch site
AFETR
Launch vehicle
Mass (kg)
RCS (m²)

Purposes: comms

External: N2YO · Heavens-Above · Gunter

§ Orbital elements

Epoch: 2026-09-20T04:06:17.080128Z

Period
94.01 min
Inclination
53.1591°
Eccentricity
0.0001172
Mean motion
15.31701005 rev/d
Perigee alt
469.9 km
Apogee alt
471.5 km
Semi-major
6,848.9 km
B*
2.7485e-5
RAAN
92.5063°
Arg perigee
91.8436°
Mean anomaly
268.2699°
Rev number
24,067

§ Raw data

STARLINK-39631 52643U 22052AX  26263.17103102  .00000488  00000+0  27485-4 0  99942 52643  53.1591  92.5063 0001172  91.8436 268.2699 15.31701005240677

JSON: /api/v1/satellites/52643 · /tle

For live sub-satellite position, see the globe view (requires WebGL).

§ Visibility from observer

Set your observer location to see the next 7 days of passes ≥ 10°. The values pass through the URL so the page stays shareable.

No JS? Fill the form by hand. The geolocation button needs JavaScript.